SCP
0 0 0 0 0 0 0 0 0 0 0 0 0 0 0 0 0 0 0 0 0 0 0 0 0 0 0 0 0 0 0 0 0 0 0 0 0 0 0 0 0 0 0
0 0 0 0 0 0 0 0 0 0 0 0 -0 -0 0 0 0 0 0 0 0 0 0 0 0 0 0 0 0 0 0 0 0 0 0 0 0 0 0 0 0 0 0
0 0 0 0 0 0 0 0 0 0 0 -0 -0 -0 -0 0 0 0 0 0 0 0 0 0 0 0 0 0 0 0 0 0 0 0 0 0 0 0 0 0 0 0 0
0 0 0 0 0 0 0 0 0 0 0 -0 -0 -0 -0 0 0 0 0 0 0 0 0 0 0 0 0 0 0 0 0 0 0 0 0 0 0 0 0 0 0 0 0
0 0 0 0 0 0 0 0 0 0 0 0 -0 -0 -0 0 0 0 0 0 0 0 0 0 0 0 0 0 0 0 0 0 0 0 0 0 0 0 0 0 0 0 0
0 0 0 0 0 0 0 0 0 0 0 0 0 0 0 0 0 0 0 0 0 0 0 0 0 0 0 0 0 0 0 0 0 0 0 0 0 0 0 0 0 0 0
0 0 0 0 0 0 0 0 0 0 0 0 0 -0 0 0 0 0 0 0 0 0 0 0 0 0 0 0 0 0 0 0 0 0 0 0 0 0 0 0 0 0 0
0 0 0 0 0 0 0 0 0 0 0 0 0 0 0 0 0 0 0 0 0 0 0 0 0 0 0 0 0 0 0 0 0 0 0 0 0 0 0 0 0 0 0
0 0 0 0 0 0 0 0 0 0 0 0 0 0 0 0 0 0 0 0 0 0 0 0 0 0 0 0 0 0 0 0 0 0 0 0 0 0 0 0 0 0 0
0 0 0 0 0 0 0 0 0 0 0 0 0 0 0 0 0 0 0 0 0 0 0 0 0 0 0 0 0 0 0 0 0 0 0 0 0 0 0 0 0 0 0
0 0 0 0 0 0 0 0 0 0 0 0 0 0 0 0 0 0 0 0 0 0 0 0 0 0 0 0 0 0 0 0 0 0 0 0 0 0 0 0 0 0 0
0 0 0 0 0 0 0 0 0 0 0 0 0 0 0 0 0 0 0 0 0 0 0 0 0 0 0 0 0 0 0 0 0 0 0 0 0 0 0 0 0 0 0
0 0 0 0 0 0 0 0 0 0 0 0 0 0 0 0 0 0 0 0 0 0 0 0 0 0 0 0 0 0 0 0 0 0 0 0 0 0 0 0 0 0 0
0 0 0 0 0 0 0 0 0 0 0 0 0 0 0 0 0 0 0 0 0 0 0 0 0 0 0 0 0 0 0 0 0 0 0 0 0 0 0 0 0 0 0
0 0 0 0 0 0 0 0 0 0 0 0 0 0 0 0 0 0 0 0 0 0 0 0 0 0 0 0 0 0 0 0 0 0 0 0 0 0 0 0 0 0 0
0 0 0 0 0 0 0 0 0 0 0 0 0 0 0 0 0 0 0 0 0 0 0 0 0 0 0 0 0 0 0 0 0 0 0 0 0 0 0 0 0 0 0
0 0 0 0 0 0 0 0 0 0 0 0 0 0 0 0 0 0 0 0 0 0 0 0 0 0 0 0 0 0 0 0 0 0 0 0 0 0 0 0 0 0 0
0 0 0 0 0 0 0 0 0 0 0 0 0 0 0 0 0 0 0 0 0 0 0 0 0 0 0 0 0 0 0 0 0 0 0 0 0 0 0 0 0 0 0
0 0 0 0 0 0 0 0 0 0 0 0 0 0 0 0 0 0 0 0 0 0 0 0 0 0 0 0 0 0 0 0 0 0 0 0 0 0 0 0 0 0 0
0 0 0 0 0 0 0 0 0 0 0 0 0 0 0 0 0 0 0 0 0 0 0 0 0 0 0 0 0 0 0 0 0 0 0 0 0 0 0 0 0 0 0
0 0 0 0 0 0 0 0 0 0 0 0 0 0 0 0 0 0 0 0 0 0 0 0 0 0 0 0 0 0 0 0 0 0 0 0 0 0 0 0 0 0 0
0 0 0 0 0 0 0 0 0 0 0 0 0 0 0 0 0 0 0 0 0 0 0 0 0 0 0 0 0 0 0 0 0 0 0 0 0 0 0 0 0 0 0
0 0 0 0 0 0 0 0 0 0 0 0 0 0 0 0 0 0 0 0 0 0 0 0 0 0 0 0 0 0 0 0 0 0 0 0 0 0 0 0 0 0 0
0 0 0 0 0 0 0 0 0 0 0 0 0 0 0 0 0 0 0 0 0 0 0 0 0 0 0 0 0 0 0 0 0 0 0 0 0 0 0 0 0 0 0
0 0 0 0 0 0 0 0 0 0 0 0 0 0 0 0 0 0 0 0 0 0 0 0 0 0 0 0 0 0 0 0 0 0 0 0 0 0 0 0 0 0 0
0 0 0 0 0 0 0 0 0 0 0 0 0 0 0 0 0 0 0 0 0 0 0 0 0 0 0 0 0 0 0 0 0 0 0 0 0 0 0 0 0 0 0
Wind_Speed
3 2 2 2 3 3 3 3 4 5 6 5 4 4 5 5 5 5 4 10 10 10 10 10 10 9 9 9 9 8 7 5 4 5 5 4 3 2 2 3 4 4 4
3 3 2 2 2 3 3 3 4 4 4 4 4 4 5 5 5 6 6 8 15 14 13 12 12 11 11 11 11 10 9 7 6 4 4 3 3 2 1 2 3 4 5
4 4 3 3 3 3 4 4 4 4 4 4 4 4 4 5 5 6 6 6 7 14 17 17 16 14 13 11 11 11 10 9 7 5 4 2 1 1 1 1 2 3 5
5 4 3 3 4 4 4 4 3 4 4 4 3 2 3 4 5 5 6 6 6 6 11 18 19 18 17 14 12 11 11 10 8 7 5 4 2 0 1 0 1 3 4
6 5 4 3 4 4 4 4 2 3 4 4 3 3 3 3 3 5 5 6 6 6 5 10 16 18 18 18 16 14 13 12 10 8 6 4 2 0 1 1 1 2 3
7 6 4 5 5 4 4 4 4 3 4 4 5 4 4 3 3 3 3 4 5 6 6 6 6 9 16 18 18 18 16 14 12 10 8 5 3 1 1 1 0 1 2
7 6 5 5 5 5 6 6 4 5 3 3 4 3 3 4 4 3 2 3 4 5 5 6 5 5 5 13 17 18 18 17 14 12 11 9 6 2 1 1 1 0 1
8 8 7 6 6 5 6 6 6 4 3 3 4 4 2 2 3 3 3 2 3 3 5 6 5 5 5 4 9 16 17 17 16 14 12 10 8 5 3 1 1 1 1
8 7 8 7 6 6 8 8 7 8 5 3 2 5 4 4 1 2 3 3 3 3 3 4 5 5 5 4 4 9 14 15 16 16 13 11 9 7 4 1 1 1 1
7 6 6 6 6 5 7 8 7 5 8 5 2 2 2 4 5 2 2 2 2 2 3 3 4 4 4 4 5 10 13 14 15 15 14 13 11 8 6 3 1 1 2
5 6 6 5 4 4 5 6 6 5 5 6 5 3 3 2 3 4 2 1 0 1 1 2 2 3 3 3 3 7 11 13 14 15 16 16 15 13 10 6 3 1 2
5 6 6 5 4 3 4 5 5 6 5 5 4 4 4 4 4 4 3 2 2 2 1 1 1 1 2 3 4 8 10 12 13 14 15 16 17 16 13 10 6 3 2
5 6 5 4 3 2 3 4 5 5 5 5 5 4 3 3 4 4 4 3 2 2 2 2 2 1 0 2 3 6 8 10 11 12 14 15 16 17 16 14 12 9 7
6 8 7 5 4 3 4 5 4 5 5 5 5 5 3 3 3 4 5 5 3 2 3 4 2 3 2 0 2 4 4 9 10 11 12 13 15 16 17 18 17 16 15
5 8 8 7 5 4 4 5 4 5 5 6 6 6 5 4 4 4 4 5 6 5 6 6 3 3 3 1 1 2 3 6 8 9 10 11 13 14 15 16 16 17 17
5 7 7 7 7 5 5 4 4 4 5 5 5 6 7 5 5 5 5 4 4 6 4 3 3 3 4 3 3 3 3 7 7 7 8 10 11 12 13 14 14 14 14
6 7 7 6 6 6 5 4 4 3 4 4 4 6 7 6 6 6 5 5 5 4 4 3 2 2 4 4 3 2 3 3 3 6 7 8 9 11 12 12 13 12 12
5 5 5 5 5 4 4 5 5 5 5 6 7 7 7 6 7 6 6 7 6 5 5 5 3 3 3 4 4 3 2 2 2 4 6 7 8 9 11 11 11 12 12
5 4 5 5 5 5 6 6 6 6 7 8 8 9 8 8 9 7 8 7 6 5 4 5 5 3 2 3 3 2 2 2 1 3 5 7 7 8 9 10 11 11 11
5 5 5 5 5 5 6 6 7 7 7 8 8 8 8 10 11 10 9 9 7 6 5 6 5 4 3 3 3 3 2 1 1 2 3 5 7 9 8 8 10 10 10
6 5 5 4 4 4 4 6 6 7 8 8 8 8 9 12 14 11 9 9 9 8 7 6 5 4 4 5 6 4 4 2 0 0 0 2 2 3 4 5 7 9 10
5 5 5 5 4 3 5 7 7 6 7 8 8 7 8 11 14 17 16 15 15 13 11 8 6 7 8 7 6 5 5 4 3 2 2 1 1 1 1 1 2 7 8
5 5 5 5 4 4 7 7 8 6 7 7 7 5 5 7 10 8 13 16 17 19 18 12 10 9 10 11 11 9 7 5 4 4 4 2 0 1 1 2 2 4 6
5 5 5 5 4 5 6 6 6 4 5 6 6 6 6 5 6 8 7 8 9 11 14 12 11 9 7 9 10 9 8 6 4 2 3 3 3 2 1 1 4 5 5
5 4 4 4 4 4 5 6 4 2 3 4 4 5 6 5 7 9 7 8 8 7 10 10 7 8 11 16 14 9 9 6 3 4 4 4 3 2 1 2 4 7 6
5 5 4 3 3 4 5 5 3 1 2 2 1 2 5 6 7 9 6 6 7 6 5 7 7 9 10 15 21 14 11 8 4 5 6 5 4 4 2 2 2 3 4
Wind_Direction
159 152 143 122 105 93 84 74 83 101 102 92 78 72 57 41 30 26 22 55 65 71 75 78 79 79 78 78 79 79 79 87 104 122 134 143 149 144 92 58 44 38 34
165 163 162 143 123 112 103 96 104 107 105 105 92 78 70 56 41 36 29 40 54 62 67 69 71 73 75 74 71 70 69 68 76 95 119 142 156 165 124 61 51 50 44
175 173 175 162 144 130 117 104 101 96 102 102 93 81 76 66 55 43 37 35 39 50 56 59 60 61 64 67 68 67 64 62 63 68 78 94 132 184 190 78 65 57 50
179 174 183 179 157 142 132 127 124 105 105 109 101 78 73 72 63 58 52 43 40 37 41 50 51 50 51 53 59 62 60 58 57 56 53 50 45 282 217 109 75 54 49
182 177 188 180 163 154 148 147 132 127 123 119 108 76 58 61 64 76 65 53 46 42 37 42 46 44 43 43 48 51 51 48 46 48 49 47 47 129 197 155 72 40 40
183 182 186 175 164 159 154 149 138 117 121 128 106 79 57 60 64 69 71 64 56 53 48 47 41 37 41 39 38 39 40 37 37 38 42 44 43 79 193 188 58 22 30
181 185 188 173 170 174 166 150 134 125 121 128 102 83 53 58 61 42 45 66 66 63 58 53 52 47 35 36 33 33 30 27 29 33 35 37 36 39 84 199 221 221 45
185 190 187 182 176 165 157 161 146 134 136 155 129 117 91 37 34 32 44 64 59 51 58 53 48 46 41 34 29 33 29 24 25 29 31 32 33 39 44 43 198 175 114
187 186 186 177 175 170 178 179 166 150 153 171 147 141 149 181 141 24 35 50 51 43 42 42 44 39 37 33 24 28 34 27 24 26 28 29 31 34 29 10 252 208 187
188 185 179 174 178 183 185 187 178 162 153 159 136 102 133 148 142 122 22 38 65 56 36 41 34 30 30 27 35 42 40 34 30 27 29 31 33 32 27 13 325 247 242
171 165 160 162 180 190 188 186 177 167 158 159 155 144 114 82 109 133 161 196 37 62 71 50 27 14 13 15 19 42 42 37 36 34 33 33 31 29 28 26 15 336 287
143 143 139 142 158 171 180 184 180 176 169 161 159 156 156 157 164 145 148 168 196 209 168 139 89 8 357 1 34 53 48 42 40 38 35 34 31 28 28 31 32 25 346
150 145 135 138 142 153 169 167 171 185 175 176 178 179 173 169 151 141 135 144 162 193 183 196 188 185 75 11 15 48 53 48 42 38 36 36 35 33 35 37 42 49 45
159 150 145 141 147 163 174 168 169 179 181 190 192 187 183 188 168 158 151 144 144 183 211 219 186 183 152 95 50 46 40 55 46 39 37 38 38 39 42 45 48 54 57
163 158 154 156 167 175 183 174 176 176 178 193 199 199 201 197 188 182 167 163 159 181 218 204 187 173 159 146 92 46 27 60 54 43 39 41 42 42 44 47 49 54 57
171 165 166 170 174 183 191 192 192 183 181 194 194 200 208 198 193 191 191 192 179 179 196 162 167 162 166 155 128 61 38 52 52 50 43 45 47 48 48 49 51 52 53
184 180 180 179 183 187 191 207 225 201 206 221 210 205 213 193 191 194 192 190 185 161 155 141 121 134 147 151 117 80 59 37 14 53 51 48 52 54 54 55 56 55 54
196 191 188 191 193 193 193 206 225 221 214 229 230 217 220 200 200 194 194 197 191 172 149 157 148 143 155 153 134 122 88 66 12 56 54 47 53 60 62 61 62 60 58
192 189 188 198 202 200 201 208 218 223 221 228 228 221 217 198 205 200 197 197 189 178 145 144 149 136 132 141 128 113 91 40 8 60 44 30 42 61 70 71 70 68 67
188 194 202 209 211 210 209 210 214 221 228 234 227 220 213 204 206 200 198 193 178 168 150 143 146 147 140 134 138 149 148 112 53 42 25 24 31 46 53 79 84 83 82
193 194 199 205 204 204 214 214 215 221 225 233 227 216 214 212 209 200 195 189 178 175 165 158 155 154 162 165 187 165 150 133 211 204 40 6 18 30 27 45 82 97 96
185 183 191 194 199 210 227 231 223 224 227 230 229 218 213 216 217 211 208 197 188 183 183 176 170 180 190 184 155 157 140 146 208 207 169 212 34 74 17 22 93 113 109
181 182 188 189 206 231 249 258 248 227 224 227 226 215 212 210 208 204 212 209 205 203 195 184 186 191 184 184 169 166 168 160 182 168 152 188 217 209 263 326 321 150 134
182 185 187 190 206 243 262 277 281 249 232 231 223 213 210 201 193 196 195 200 203 207 204 199 202 200 185 173 175 172 151 119 91 142 160 175 195 213 245 270 287 223 178
182 182 182 187 208 255 279 286 273 242 246 246 229 213 201 191 193 189 189 202 207 214 212 203 189 172 166 166 158 139 145 148 169 192 192 168 175 185 220 235 248 249 213
180 173 178 189 211 246 272 280 229 188 243 252 226 203 190 173 166 171 179 196 214 212 188 189 173 167 166 173 173 173 168 167 156 186 188 169 158 160 202 248 229 235 238